[keps] orb07333.amsat
Ray Hoad
r.hoad at att.net
Thu Nov 29 20:22:54 PST 2007
SB KEPS @ AMSAT $ORB07333.O
Orbital Elements 07333.OSCAR
HR AMSAT ORBITAL ELEMENTS FOR OSCAR SATELLITES
FROM WA5QGD FORT WORTH,TX November 29, 2007
Send Subscribe/unsubscribe to KEPS at
http://www.amsat.org/mailman/listinfo/keps
BID: ORB07333.O
TO ALL RADIO AMATEURS BT
Satellite: PO-63
Catalog number: 29712
Epoch time: 07333.77137972
Element set: 957
Inclination: 097.9035 deg
RA of node: 030.4800 deg
Eccentricity: 0.0013399
Arg of perigee: 315.6719 deg
Mean anomaly: 044.3397 deg
Mean motion: 14.79918907 rev/day
Decay rate: 7.20e-06 rev/day^2
Epoch rev: 4782
Checksum: 340
Satellite: VO-52
Catalog number: 28650
Epoch time: 07332.92389359
Element set: 0791
Inclination: 097.8158 deg
RA of node: 039.8010 deg
Eccentricity: 0.0028301
Arg of perigee: 077.4821 deg
Mean anomaly: 282.9513 deg
Mean motion: 14.81388848 rev/day
Decay rate: 1.82e-06 rev/day^2
Epoch rev: 13880
Checksum: 334
Satellite: AO-40
Catalog number: 26609
Epoch time: 07327.58552274
Element set: 972
Inclination: 007.0232 deg
RA of node: 109.8145 deg
Eccentricity: 0.7933750
Arg of perigee: 025.9532 deg
Mean anomaly: 357.9399 deg
Mean motion: 01.25583264 rev/day
Decay rate: -5.6e-07 rev/day^2
Epoch rev: 3244
Checksum: 321
Satellite: SO-33
Catalog number: 25509
Epoch time: 07332.53166291
Element set: 0076
Inclination: 031.4309 deg
RA of node: 016.5352 deg
Eccentricity: 0.0354841
Arg of perigee: 064.2057 deg
Mean anomaly: 299.4735 deg
Mean motion: 14.28186791 rev/day
Decay rate: -3.0e-08 rev/day^2
Epoch rev: 47476
Checksum: 309
Satellite: FO-29
Catalog number: 24278
Epoch time: 07332.97097675
Element set: 0649
Inclination: 098.5757 deg
RA of node: 270.6483 deg
Eccentricity: 0.0351020
Arg of perigee: 016.5574 deg
Mean anomaly: 344.6702 deg
Mean motion: 13.52933939 rev/day
Decay rate: -2.1e-07 rev/day^2
Epoch rev: 55718
Checksum: 342
Satellite: RS-15
Catalog number: 23439
Epoch time: 07332.86078893
Element set: 0118
Inclination: 064.8137 deg
RA of node: 100.6122 deg
Eccentricity: 0.0154633
Arg of perigee: 160.8979 deg
Mean anomaly: 199.7829 deg
Mean motion: 11.27552976 rev/day
Decay rate: -3.9e-07 rev/day^2
Epoch rev: 53226
Checksum: 336
Satellite: UO-11
Catalog number: 14781
Epoch time: 07332.66123518
Element set: 0532
Inclination: 098.1761 deg
RA of node: 358.4286 deg
Eccentricity: 0.0009421
Arg of perigee: 008.8030 deg
Mean anomaly: 351.3341 deg
Mean motion: 14.79598484 rev/day
Decay rate: 2.98e-06 rev/day^2
Epoch rev: 27405
Checksum: 309
Satellite: AO-10
Catalog number: 14129
Epoch time: 07332.70664333
Element set: 447
Inclination: 025.9789 deg
RA of node: 243.6457 deg
Eccentricity: 0.6048731
Arg of perigee: 077.0160 deg
Mean anomaly: 340.5510 deg
Mean motion: 02.05872564 rev/day
Decay rate: -2.76e-06 rev/day^2
Epoch rev: 18395
Checksum: 310
Satellite: AO-07
Catalog number: 07530
Epoch time: 07332.70244764
Element set: 0039
Inclination: 101.4949 deg
RA of node: 005.7447 deg
Eccentricity: 0.0011814
Arg of perigee: 295.5375 deg
Mean anomaly: 064.4475 deg
Mean motion: 12.53572898 rev/day
Decay rate: -2.8e-07 rev/day^2
Epoch rev: 51173
Checksum: 308
/EX
SB KEPS @ AMSAT $ORB07333.D
Orbital Elements 07333.MICROS
HR AMSAT ORBITAL ELEMENTS FOR THE MICROSATS
FROM WA5QGD FORT WORTH,TX November 29, 2007
Send Subscribe/unsubscribe to KEPS at
http://www.amsat.org/mailman/listinfo/keps
BID: ORB07333.D
TO ALL RADIO AMATEURS BT
Satellite: LIBERT
Catalog number: 31129
Epoch time: 07333.15849425
Element set: 551
Inclination: 098.0662 deg
RA of node: 039.8540 deg
Eccentricity: 0.0101537
Arg of perigee: 236.1884 deg
Mean anomaly: 122.9551 deg
Mean motion: 14.51979813 rev/day
Decay rate: 3.36e-06 rev/day^2
Epoch rev: 3274
Checksum: 300
Satellite: CP3
Catalog number: 31128
Epoch time: 07332.68977797
Element set: 192
Inclination: 098.0667 deg
RA of node: 039.3832 deg
Eccentricity: 0.0102157
Arg of perigee: 237.5707 deg
Mean anomaly: 121.5573 deg
Mean motion: 14.51887636 rev/day
Decay rate: -4.8e-07 rev/day^2
Epoch rev: 3269
Checksum: 332
Satellite: CP4
Catalog number: 31122
Epoch time: 07332.74979627
Element set: 0198
Inclination: 098.0673 deg
RA of node: 040.5650 deg
Eccentricity: 0.0085070
Arg of perigee: 234.4271 deg
Mean anomaly: 124.8889 deg
Mean motion: 14.55056252 rev/day
Decay rate: 5.49e-06 rev/day^2
Epoch rev: 03278
Checksum: 315
Satellite: NO-61
Catalog number: 29664
Epoch time: 07332.98332633
Element set: 0694
Inclination: 051.6256 deg
RA of node: 294.3587 deg
Eccentricity: 0.0001433
Arg of perigee: 319.4830 deg
Mean anomaly: 040.6070 deg
Mean motion: 16.13236859 rev/day
Decay rate: 1.86509e-03 rev/day^2
Epoch rev: 05452
Checksum: 320
Satellite: HO-59
Catalog number: 29484
Epoch time: 07333.67009481
Element set: 900
Inclination: 098.2612 deg
RA of node: 050.0763 deg
Eccentricity: 0.0159413
Arg of perigee: 026.9196 deg
Mean anomaly: 334.0177 deg
Mean motion: 15.65429420 rev/day
Decay rate: 4.8043e-04 rev/day^2
Epoch rev: 6683
Checksum: 319
Satellite: CO-56
Catalog number: 28941
Epoch time: 07332.85566608
Element set: 0662
Inclination: 098.1125 deg
RA of node: 052.9072 deg
Eccentricity: 0.0203105
Arg of perigee: 047.2423 deg
Mean anomaly: 314.5753 deg
Mean motion: 15.46537547 rev/day
Decay rate: 1.8585e-04 rev/day^2
Epoch rev: 09882
Checksum: 329
Satellite: AO-51
Catalog number: 28375
Epoch time: 07332.69547423
Element set: 0969
Inclination: 098.0933 deg
RA of node: 003.3786 deg
Eccentricity: 0.0085250
Arg of perigee: 043.9702 deg
Mean anomaly: 316.8229 deg
Mean motion: 14.40588379 rev/day
Decay rate: 2.1e-07 rev/day^2
Epoch rev: 17939
Checksum: 337
Satellite: CO-57
Catalog number: 27848
Epoch time: 07332.54359080
Element set: 0133
Inclination: 098.7181 deg
RA of node: 337.7470 deg
Eccentricity: 0.0010036
Arg of perigee: 345.8135 deg
Mean anomaly: 014.2752 deg
Mean motion: 14.20360082 rev/day
Decay rate: 6.0e-07 rev/day^2
Epoch rev: 22878
Checksum: 292
Satellite: CO-55
Catalog number: 27844
Epoch time: 07332.57225897
Element set: 0177
Inclination: 098.7179 deg
RA of node: 338.6321 deg
Eccentricity: 0.0009975
Arg of perigee: 342.6049 deg
Mean anomaly: 017.4786 deg
Mean motion: 14.20545783 rev/day
Decay rate: 7.7e-07 rev/day^2
Epoch rev: 22881
Checksum: 353
Satellite: SO-50
Catalog number: 27607
Epoch time: 07332.41009671
Element set: 0467
Inclination: 064.5577 deg
RA of node: 306.3948 deg
Eccentricity: 0.0072909
Arg of perigee: 320.0791 deg
Mean anomaly: 039.4961 deg
Mean motion: 14.71305610 rev/day
Decay rate: 2.5e-07 rev/day^2
Epoch rev: 26528
Checksum: 304
Satellite: NO-44
Catalog number: 26931
Epoch time: 07332.78745648
Element set: 0745
Inclination: 067.0525 deg
RA of node: 083.4792 deg
Eccentricity: 0.0005234
Arg of perigee: 251.5423 deg
Mean anomaly: 108.5102 deg
Mean motion: 14.29502835 rev/day
Decay rate: -2.46e-06 rev/day^2
Epoch rev: 32162
Checksum: 296
Satellite: MO-46
Catalog number: 26548
Epoch time: 07332.63754473
Element set: 0960
Inclination: 064.5587 deg
RA of node: 033.8936 deg
Eccentricity: 0.0005632
Arg of perigee: 350.4588 deg
Mean anomaly: 009.6422 deg
Mean motion: 14.83201695 rev/day
Decay rate: 1.32e-06 rev/day^2
Epoch rev: 38792
Checksum: 327
Satellite: GO-32
Catalog number: 25397
Epoch time: 07332.75049340
Element set: 462
Inclination: 098.3928 deg
RA of node: 012.5796 deg
Eccentricity: 0.0002199
Arg of perigee: 101.9265 deg
Mean anomaly: 258.2174 deg
Mean motion: 14.23133919 rev/day
Decay rate: -1.27e-06 rev/day^2
Epoch rev: 48756
Checksum: 320
Satellite: PO-28
Catalog number: 22829
Epoch time: 07332.61263997
Element set: 0813
Inclination: 098.3380 deg
RA of node: 297.6618 deg
Eccentricity: 0.0010761
Arg of perigee: 105.1380 deg
Mean anomaly: 255.0982 deg
Mean motion: 14.30172822 rev/day
Decay rate: -7.1e-07 rev/day^2
Epoch rev: 73931
Checksum: 310
Satellite: IO-26
Catalog number: 22826
Epoch time: 07332.73725141
Element set: 0538
Inclination: 098.3488 deg
RA of node: 296.6413 deg
Eccentricity: 0.0009558
Arg of perigee: 128.4329 deg
Mean anomaly: 231.7705 deg
Mean motion: 14.29470818 rev/day
Decay rate: -6.0e-08 rev/day^2
Epoch rev: 73908
Checksum: 331
Satellite: AO-27
Catalog number: 22825
Epoch time: 07332.78830048
Element set: 0839
Inclination: 098.3555 deg
RA of node: 295.6874 deg
Eccentricity: 0.0008846
Arg of perigee: 130.0468 deg
Mean anomaly: 230.1497 deg
Mean motion: 14.29224168 rev/day
Decay rate: 9.7e-07 rev/day^2
Epoch rev: 73900
Checksum: 336
Satellite: LO-19
Catalog number: 20442
Epoch time: 07332.67848456
Element set: 114
Inclination: 098.1869 deg
RA of node: 327.3575 deg
Eccentricity: 0.0012838
Arg of perigee: 057.5386 deg
Mean anomaly: 302.7023 deg
Mean motion: 14.32016067 rev/day
Decay rate: -7.9e-07 rev/day^2
Epoch rev: 93223
Checksum: 314
Satellite: AO-16
Catalog number: 20439
Epoch time: 07332.87717784
Element set: 0191
Inclination: 098.2094 deg
RA of node: 318.4768 deg
Eccentricity: 0.0011912
Arg of perigee: 058.1728 deg
Mean anomaly: 302.0608 deg
Mean motion: 14.31777130 rev/day
Decay rate: 1.9e-07 rev/day^2
Epoch rev: 93211
Checksum: 304
/EX
SB KEPS @ AMSAT $ORB07333.W
Orbital Elements 07333.WEATHER
HR AMSAT ORBITAL ELEMENTS FOR WEATHER SATELLITES
FROM WA5QGD FORT WORTH,TX November 29, 2007
Send Subscribe/unsubscribe to KEPS at
http://www.amsat.org/mailman/listinfo/keps
BID: ORB07333.W
TO ALL RADIO AMATEURS BT
Satellite: NOAA-18
Catalog number: 28654
Epoch time: 07332.75646738
Element set: 0217
Inclination: 098.8471 deg
RA of node: 271.3946 deg
Eccentricity: 0.0014432
Arg of perigee: 160.1314 deg
Mean anomaly: 200.0449 deg
Mean motion: 14.11115138 rev/day
Decay rate: 3.10e-06 rev/day^2
Epoch rev: 13006
Checksum: 273
Satellite: NOAA-17
Catalog number: 27453
Epoch time: 07332.73780762
Element set: 0698
Inclination: 098.5632 deg
RA of node: 037.9439 deg
Eccentricity: 0.0011208
Arg of perigee: 339.5002 deg
Mean anomaly: 020.5723 deg
Mean motion: 14.23928149 rev/day
Decay rate: 4.1e-07 rev/day^2
Epoch rev: 28213
Checksum: 303
